CQH7708 ZGHA-ZYTX

Flight info

Callsign CQH7708
Flight time 2h 40m
Altitude 31100
Route OPORU W56 VYK W34 OTBUL W35 CHG A575 OMDUS OMD73A
Aircraft A320/M-SDE3FGHIRWY/LB1

Departure

Time 2026-05-08 13:02
Airport Changsha Huanghua International Airport (ZGHA)

Arrival

Time 2026-05-08 15:42
Airport Shenyang Taoxian International Airport (ZYTX)
Time Latitude Longitude Altitude Speed Heading
2026-05-08 12:42 28.20119 113.21633 214 ft 0 kts 266°
2026-05-08 12:53 28.20119 113.21628 213 ft 4 kts 266°
2026-05-08 12:53 28.20081 113.21598 213 ft 13 kts 160°
2026-05-08 12:53 28.20032 113.21710 216 ft 19 kts 152°
2026-05-08 12:54 28.19911 113.21728 218 ft 16 kts 177°
2026-05-08 12:54 28.19801 113.21733 218 ft 15 kts 177°
2026-05-08 12:54 28.19707 113.21741 214 ft 13 kts 178°
2026-05-08 12:54 28.19624 113.21745 214 ft 11 kts 176°
2026-05-08 12:55 28.19555 113.21749 219 ft 9 kts 177°
2026-05-08 12:55 28.19496 113.21753 219 ft 8 kts 177°
2026-05-08 12:55 28.19431 113.21758 218 ft 11 kts 176°
2026-05-08 12:55 28.19357 113.21762 214 ft 12 kts 178°
2026-05-08 12:56 28.19257 113.21767 214 ft 14 kts 177°
2026-05-08 12:56 28.19166 113.21774 214 ft 12 kts 177°
2026-05-08 12:56 28.19086 113.21778 214 ft 11 kts 177°
2026-05-08 12:56 28.19005 113.21784 214 ft 14 kts 176°
2026-05-08 12:57 28.18911 113.21789 217 ft 13 kts 177°
2026-05-08 12:57 28.18826 113.21795 214 ft 11 kts 176°
2026-05-08 12:57 28.18753 113.21800 214 ft 10 kts 177°
2026-05-08 12:57 28.18667 113.21804 214 ft 14 kts 176°
2026-05-08 12:58 28.18579 113.21810 217 ft 12 kts 177°
2026-05-08 12:58 28.18487 113.21815 217 ft 13 kts 177°
2026-05-08 12:58 28.18405 113.21820 218 ft 11 kts 177°
2026-05-08 12:58 28.18335 113.21825 217 ft 9 kts 176°
2026-05-08 12:59 28.18277 113.21829 218 ft 8 kts 176°
2026-05-08 12:59 28.18230 113.21832 218 ft 6 kts 177°
2026-05-08 12:59 28.18153 113.21837 214 ft 17 kts 179°
2026-05-08 12:59 28.18015 113.21845 214 ft 20 kts 176°
2026-05-08 13:00 28.17876 113.21853 214 ft 20 kts 177°
2026-05-08 13:00 28.17759 113.21881 216 ft 16 kts 132°
2026-05-08 13:00 28.17749 113.21987 216 ft 13 kts 70°
2026-05-08 13:00 28.17804 113.22045 215 ft 11 kts
2026-05-08 13:01 28.17817 113.22044 215 ft 0 kts 356°
2026-05-08 13:01 28.17839 113.22042 219 ft 17 kts 356°
2026-05-08 13:01 28.18219 113.22018 215 ft 89 kts 357°
2026-05-08 13:01 28.19032 113.21967 220 ft 143 kts 357°
2026-05-08 13:02 28.20125 113.21888 576 ft 156 kts 355°
2026-05-08 13:02 28.21186 113.21885 1258 ft 156 kts
2026-05-08 13:02 28.22308 113.21920 1693 ft 171 kts
2026-05-08 13:02 28.23577 113.21901 1983 ft 193 kts
2026-05-08 13:03 28.24992 113.21852 2352 ft 211 kts
2026-05-08 13:03 28.26481 113.21780 2887 ft 216 kts 359°
2026-05-08 13:03 28.27983 113.21697 3405 ft 217 kts 360°
2026-05-08 13:03 28.29470 113.21922 4139 ft 218 kts 23°
2026-05-08 13:04 28.30733 113.22875 4830 ft 221 kts 49°
2026-05-08 13:04 28.31676 113.24150 5485 ft 225 kts 51°
2026-05-08 13:04 28.32698 113.25525 6154 ft 231 kts 50°
2026-05-08 13:04 28.33743 113.26919 6850 ft 234 kts 49°
2026-05-08 13:05 28.34814 113.28338 7496 ft 239 kts 49°
2026-05-08 13:05 28.35908 113.29784 8161 ft 243 kts 48°
2026-05-08 13:05 28.37022 113.31256 8817 ft 248 kts 47°
2026-05-08 13:05 28.38155 113.32756 9494 ft 253 kts 47°
2026-05-08 13:06 28.39101 113.34472 10137 ft 262 kts 68°
2026-05-08 13:06 28.39462 113.36561 10453 ft 283 kts 88°
2026-05-08 13:06 28.39525 113.38893 10684 ft 307 kts 88°
2026-05-08 13:06 28.39604 113.41412 10892 ft 331 kts 87°
2026-05-08 13:07 28.40001 113.44059 11069 ft 352 kts 65°
2026-05-08 13:07 28.41390 113.46350 11216 ft 367 kts 39°
2026-05-08 13:07 28.43616 113.47781 11455 ft 373 kts 12°
2026-05-08 13:07 28.46184 113.48272 12007 ft 375 kts
2026-05-08 13:08 28.48794 113.48475 12646 ft 377 kts 358°
2026-05-08 13:08 28.51426 113.48553 13270 ft 380 kts 356°
2026-05-08 13:08 28.54085 113.48604 13890 ft 384 kts 356°
2026-05-08 13:08 28.56773 113.48685 14452 ft 388 kts 357°
2026-05-08 13:09 28.59486 113.48815 14977 ft 392 kts 358°
2026-05-08 13:09 28.62231 113.48987 15504 ft 396 kts 358°
2026-05-08 13:09 28.64996 113.49189 16024 ft 400 kts 358°
2026-05-08 13:09 28.67786 113.49404 16525 ft 403 kts 358°
2026-05-08 13:10 28.70597 113.49625 17006 ft 407 kts 358°
2026-05-08 13:10 28.73435 113.49844 17477 ft 410 kts 358°
2026-05-08 13:10 28.76291 113.50057 17944 ft 413 kts 358°
2026-05-08 13:10 28.79169 113.50265 18422 ft 416 kts 358°
2026-05-08 13:11 28.82067 113.50469 18828 ft 419 kts 358°
2026-05-08 13:11 28.84985 113.50671 19257 ft 421 kts 358°
2026-05-08 13:11 28.87920 113.50878 19668 ft 424 kts 358°
2026-05-08 13:11 28.90873 113.51088 20055 ft 426 kts 358°
2026-05-08 13:12 28.93842 113.51300 20441 ft 429 kts 358°
2026-05-08 13:12 28.96831 113.51517 20813 ft 432 kts 358°
2026-05-08 13:12 28.99833 113.51735 21203 ft 434 kts 358°
2026-05-08 13:12 29.02863 113.51955 21589 ft 437 kts 358°
2026-05-08 13:13 29.05902 113.52176 21975 ft 439 kts 358°
2026-05-08 13:13 29.08917 113.52395 22355 ft 441 kts 358°
2026-05-08 13:13 29.11991 113.52615 22730 ft 444 kts 358°
2026-05-08 13:13 29.15084 113.52837 23081 ft 446 kts 357°
2026-05-08 13:14 29.18191 113.53059 23425 ft 449 kts 357°
2026-05-08 13:14 29.21313 113.53283 23755 ft 451 kts 357°
2026-05-08 13:14 29.24460 113.53511 24033 ft 453 kts 357°
2026-05-08 13:14 29.27612 113.53741 24313 ft 454 kts 357°
2026-05-08 13:15 29.30767 113.53980 24556 ft 456 kts 357°
2026-05-08 13:15 29.33939 113.54243 24810 ft 458 kts 358°
2026-05-08 13:15 29.37131 113.54524 25055 ft 462 kts 358°
2026-05-08 13:15 29.40342 113.54810 25302 ft 465 kts 358°
2026-05-08 13:16 29.43577 113.55103 25573 ft 467 kts 358°
2026-05-08 13:16 29.46821 113.55394 25846 ft 468 kts 358°
2026-05-08 13:16 29.50076 113.55683 26122 ft 470 kts 358°
2026-05-08 13:16 29.53344 113.55969 26397 ft 471 kts 357°
2026-05-08 13:17 29.56621 113.56253 26657 ft 473 kts 357°
2026-05-08 13:17 29.59905 113.56533 26928 ft 474 kts 357°
2026-05-08 13:17 29.63200 113.56814 27213 ft 476 kts 357°
2026-05-08 13:17 29.66518 113.57100 27449 ft 478 kts 358°
2026-05-08 13:18 29.69840 113.57389 27710 ft 480 kts 358°
2026-05-08 13:18 29.73175 113.57681 27980 ft 481 kts 358°
2026-05-08 13:18 29.76511 113.57979 28360 ft 480 kts 358°
2026-05-08 13:18 29.79837 113.58277 28756 ft 479 kts 357°
2026-05-08 13:19 29.83148 113.58571 29144 ft 477 kts 357°
2026-05-08 13:19 29.86456 113.58861 29535 ft 476 kts 357°
2026-05-08 13:19 29.89761 113.59147 29912 ft 476 kts 357°
2026-05-08 13:19 29.93062 113.59550 30250 ft 481 kts
2026-05-08 13:20 29.96332 113.60520 30564 ft 490 kts 12°
2026-05-08 13:20 29.99500 113.62030 30876 ft 494 kts 16°
2026-05-08 13:20 30.02647 113.63613 31167 ft 493 kts 16°
2026-05-08 13:20 30.05797 113.65192 31255 ft 494 kts 15°
2026-05-08 13:21 30.12118 113.68342 31293 ft 495 kts 15°
2026-05-08 13:21 30.18446 113.71489 31267 ft 495 kts 15°
2026-05-08 13:22 30.23699 113.74114 31269 ft 495 kts 15°
2026-05-08 13:22 30.30019 113.77285 31267 ft 495 kts 15°
2026-05-08 13:23 30.36341 113.80457 31299 ft 495 kts 15°
2026-05-08 13:23 30.43724 113.84167 31288 ft 495 kts 15°
2026-05-08 13:24 30.48856 113.86751 31285 ft 494 kts 15°
2026-05-08 13:24 30.55158 113.89928 31272 ft 494 kts 15°
2026-05-08 13:25 30.61450 113.93103 31289 ft 494 kts 15°
2026-05-08 13:25 30.67758 113.96243 31278 ft 493 kts 14°
2026-05-08 13:26 30.74064 113.99402 31269 ft 495 kts 17°
2026-05-08 13:26 30.80285 114.02893 31260 ft 497 kts 18°
2026-05-08 13:27 30.86509 114.06388 31282 ft 496 kts 17°
2026-05-08 13:27 30.92763 114.09780 31260 ft 496 kts 17°
2026-05-08 13:28 30.99031 114.13144 31244 ft 496 kts 17°
2026-05-08 13:28 31.05295 114.16528 31239 ft 497 kts 17°
2026-05-08 13:29 31.11566 114.19941 31259 ft 497 kts 17°
2026-05-08 13:29 31.17829 114.23356 31252 ft 497 kts 17°
2026-05-08 13:30 31.24083 114.26771 31249 ft 496 kts 17°
2026-05-08 13:30 31.30335 114.30185 31271 ft 496 kts 18°
2026-05-08 13:31 31.36700 114.32811 31258 ft 480 kts
2026-05-08 13:31 31.43240 114.33390 31248 ft 468 kts 353°
2026-05-08 13:32 31.49799 114.33581 31244 ft 469 kts 353°
2026-05-08 13:32 31.56280 114.33768 31240 ft 469 kts 353°
2026-05-08 13:33 31.62804 114.33960 31239 ft 469 kts 353°
2026-05-08 13:33 31.69325 114.34157 31243 ft 469 kts 354°
2026-05-08 13:34 31.75845 114.34347 31246 ft 469 kts 353°
2026-05-08 13:34 31.82372 114.34545 31265 ft 469 kts 355°
2026-05-08 13:35 31.88905 114.34750 31260 ft 469 kts 355°
2026-05-08 13:35 31.95438 114.34951 31255 ft 469 kts 355°
2026-05-08 13:36 32.01968 114.35146 31251 ft 470 kts 355°
2026-05-08 13:36 32.08495 114.35345 31266 ft 469 kts 355°
2026-05-08 13:37 32.15020 114.35544 31268 ft 469 kts 355°
2026-05-08 13:37 32.21537 114.35737 31259 ft 468 kts 355°
2026-05-08 13:38 32.28053 114.35970 31272 ft 469 kts 358°
2026-05-08 13:38 32.34576 114.36525 31264 ft 470 kts 360°
2026-05-08 13:39 32.41090 114.37234 31259 ft 470 kts 360°
2026-05-08 13:39 32.47599 114.37892 31254 ft 469 kts 359°
2026-05-08 13:40 32.54108 114.38475 31265 ft 469 kts 359°
2026-05-08 13:40 32.60611 114.39059 31265 ft 469 kts 359°
2026-05-08 13:41 32.67111 114.39657 31262 ft 468 kts 359°
2026-05-08 13:41 32.73610 114.40247 31247 ft 469 kts 359°
2026-05-08 13:42 32.80108 114.40847 31267 ft 468 kts 359°
2026-05-08 13:42 32.86601 114.41458 31262 ft 468 kts 359°
2026-05-08 13:43 32.93052 114.42074 31261 ft 468 kts 359°
2026-05-08 13:43 32.99545 114.42684 31256 ft 468 kts 359°
2026-05-08 13:44 33.06026 114.43285 31281 ft 467 kts 359°
2026-05-08 13:44 33.12504 114.43892 31276 ft 466 kts 359°
2026-05-08 13:45 33.18964 114.44496 31266 ft 466 kts 359°
2026-05-08 13:45 33.25426 114.45101 31274 ft 466 kts 359°
2026-05-08 13:46 33.31887 114.45712 31262 ft 465 kts 359°
2026-05-08 13:46 33.38342 114.46322 31253 ft 465 kts 359°
2026-05-08 13:47 33.44795 114.46927 31246 ft 465 kts 359°
2026-05-08 13:47 33.51242 114.47530 31266 ft 465 kts 358°
2026-05-08 13:48 33.57692 114.48133 31260 ft 465 kts 358°
2026-05-08 13:48 33.64140 114.48737 31254 ft 464 kts 358°
2026-05-08 13:49 33.70574 114.49243 31247 ft 463 kts 357°
2026-05-08 13:49 33.77009 114.49803 31252 ft 464 kts 359°
2026-05-08 13:50 33.83447 114.50523 31253 ft 464 kts 359°
2026-05-08 13:50 33.89874 114.51201 31248 ft 463 kts 358°
2026-05-08 13:51 33.96292 114.51797 31240 ft 463 kts 358°
2026-05-08 13:51 34.02672 114.52371 31235 ft 463 kts 358°
2026-05-08 13:52 34.09094 114.52973 31233 ft 463 kts 358°
2026-05-08 13:52 34.15513 114.53582 31223 ft 463 kts 358°
2026-05-08 13:53 34.21933 114.54200 31248 ft 463 kts 358°
2026-05-08 13:53 34.28344 114.54807 31237 ft 462 kts 358°
2026-05-08 13:54 34.34762 114.55413 31230 ft 462 kts 358°
2026-05-08 13:54 34.41176 114.56020 31226 ft 462 kts 358°
2026-05-08 13:55 34.47588 114.56635 31237 ft 462 kts 357°
2026-05-08 13:56 34.57198 114.57579 31228 ft 462 kts 357°
2026-05-08 13:56 34.63606 114.58200 31224 ft 462 kts 357°
2026-05-08 13:57 34.70006 114.58825 31248 ft 461 kts 357°
2026-05-08 13:57 34.76403 114.59454 31237 ft 461 kts 357°
2026-05-08 13:58 34.82799 114.60076 31230 ft 461 kts 357°
2026-05-08 13:58 34.89184 114.60690 31242 ft 460 kts 357°
2026-05-08 13:59 34.95572 114.61314 31229 ft 460 kts 357°
2026-05-08 13:59 35.01920 114.61938 31219 ft 460 kts 357°
2026-05-08 14:00 35.08304 114.62567 31215 ft 460 kts 357°
2026-05-08 14:00 35.14669 114.63192 31243 ft 460 kts 356°
2026-05-08 14:01 35.21089 114.63818 31232 ft 459 kts 356°
2026-05-08 14:01 35.27462 114.64436 31227 ft 458 kts 356°
2026-05-08 14:02 35.33824 114.65038 31239 ft 458 kts 356°
2026-05-08 14:02 35.40161 114.65637 31234 ft 457 kts 356°
2026-05-08 14:03 35.46474 114.66234 31226 ft 457 kts 356°
2026-05-08 14:03 35.52700 114.66832 31205 ft 456 kts 356°
2026-05-08 14:04 35.58985 114.67438 31223 ft 456 kts 356°
2026-05-08 14:04 35.65341 114.68042 31210 ft 454 kts 356°
2026-05-08 14:05 35.71596 114.68633 31203 ft 454 kts 356°
2026-05-08 14:05 35.77885 114.69233 31190 ft 453 kts 356°
2026-05-08 14:06 35.84178 114.69835 31202 ft 453 kts 356°
2026-05-08 14:06 35.89405 114.70336 31197 ft 453 kts 356°
2026-05-08 14:07 35.96746 114.71031 31183 ft 453 kts 356°
2026-05-08 14:07 36.01968 114.71533 31197 ft 453 kts 356°
2026-05-08 14:08 36.09317 114.72252 31175 ft 454 kts 356°
2026-05-08 14:08 36.14553 114.72764 31170 ft 454 kts 356°
2026-05-08 14:09 36.20854 114.73381 31165 ft 454 kts 356°
2026-05-08 14:09 36.27162 114.73996 31164 ft 454 kts 356°
2026-05-08 14:10 36.33460 114.74617 31153 ft 454 kts 356°
2026-05-08 14:10 36.39733 114.76364 31143 ft 475 kts 14°
2026-05-08 14:11 36.45763 114.79835 31165 ft 478 kts 17°
2026-05-08 14:11 36.51795 114.83336 31153 ft 478 kts 17°
2026-05-08 14:12 36.57819 114.86824 31129 ft 478 kts 17°
2026-05-08 14:12 36.63848 114.90322 31128 ft 478 kts 17°
2026-05-08 14:13 36.69867 114.93832 31142 ft 478 kts 17°
2026-05-08 14:13 36.75884 114.97339 31134 ft 477 kts 17°
2026-05-08 14:14 36.81897 115.00843 31140 ft 477 kts 17°
2026-05-08 14:14 36.87909 115.04361 31144 ft 477 kts 17°
2026-05-08 14:15 36.93906 115.07875 31139 ft 476 kts 17°
2026-05-08 14:15 36.99839 115.11362 31126 ft 475 kts 17°
2026-05-08 14:16 37.05825 115.14895 31130 ft 472 kts 17°
2026-05-08 14:16 37.11741 115.18381 31113 ft 469 kts 17°
2026-05-08 14:17 37.17654 115.21863 31110 ft 469 kts 17°
2026-05-08 14:17 37.23567 115.25349 31121 ft 469 kts 17°
2026-05-08 14:18 37.29468 115.28841 31127 ft 469 kts 17°
2026-05-08 14:18 37.35369 115.32338 31115 ft 468 kts 17°
2026-05-08 14:19 37.41257 115.35839 31115 ft 468 kts 17°
2026-05-08 14:19 37.47142 115.39339 31119 ft 467 kts 17°
2026-05-08 14:20 37.53015 115.42830 31112 ft 467 kts 17°
2026-05-08 14:20 37.58888 115.46332 31103 ft 467 kts 17°
2026-05-08 14:21 37.64751 115.49850 31106 ft 467 kts 17°
2026-05-08 14:21 37.70614 115.53370 31092 ft 467 kts 17°
2026-05-08 14:22 37.76500 115.56816 31078 ft 462 kts 12°
2026-05-08 14:22 37.82621 115.58504 31089 ft 442 kts 355°
2026-05-08 14:23 37.88694 115.58226 31071 ft 436 kts 349°
2026-05-08 14:23 37.94756 115.57768 31062 ft 437 kts 349°
2026-05-08 14:24 38.00827 115.57327 31059 ft 437 kts 349°
2026-05-08 14:24 38.06899 115.56885 31063 ft 438 kts 350°
2026-05-08 14:25 38.12996 115.56511 31052 ft 439 kts 351°
2026-05-08 14:25 38.19096 115.56139 31049 ft 439 kts 351°
2026-05-08 14:26 38.25233 115.56050 31051 ft 448 kts
2026-05-08 14:26 38.31297 115.58333 31050 ft 465 kts 20°
2026-05-08 14:27 38.37098 115.61999 31054 ft 466 kts 20°
2026-05-08 14:27 38.42914 115.65669 31086 ft 466 kts 20°
2026-05-08 14:28 38.48734 115.69336 31081 ft 466 kts 20°
2026-05-08 14:28 38.54552 115.73007 31079 ft 466 kts 20°
2026-05-08 14:29 38.60363 115.76689 31080 ft 466 kts 20°
2026-05-08 14:29 38.66012 115.80824 31086 ft 474 kts 32°
2026-05-08 14:30 38.70727 115.86821 31086 ft 481 kts 44°
2026-05-08 14:30 38.75102 115.93085 31078 ft 481 kts 44°
2026-05-08 14:31 38.79562 115.99470 31106 ft 480 kts 43°
2026-05-08 14:31 38.84011 116.05837 31102 ft 479 kts 43°
2026-05-08 14:32 38.90671 116.15382 31090 ft 478 kts 44°
2026-05-08 14:32 38.95084 116.21752 31109 ft 477 kts 44°
2026-05-08 14:33 38.99461 116.28086 31097 ft 477 kts 44°
2026-05-08 14:33 39.03861 116.34454 31092 ft 476 kts 44°
2026-05-08 14:34 39.08265 116.40812 31114 ft 476 kts 44°
2026-05-08 14:34 39.12660 116.47180 31110 ft 475 kts 44°
2026-05-08 14:35 39.16401 116.54215 31106 ft 484 kts 63°
2026-05-08 14:35 39.18026 116.62672 31096 ft 492 kts 85°
2026-05-08 14:36 39.17916 116.67085 31086 ft 495 kts 96°
2026-05-08 14:36 39.17292 116.71451 31082 ft 496 kts 100°
2026-05-08 14:36 39.15939 116.80161 31086 ft 496 kts 100°
2026-05-08 14:37 39.14574 116.88877 31095 ft 496 kts 100°
2026-05-08 14:37 39.13199 116.97590 31092 ft 497 kts 100°
2026-05-08 14:38 39.11909 117.06332 31094 ft 497 kts 98°
2026-05-08 14:38 39.10794 117.15088 31122 ft 496 kts 97°
2026-05-08 14:39 39.09689 117.23854 31130 ft 496 kts 97°
2026-05-08 14:39 39.08526 117.32606 31122 ft 496 kts 98°
2026-05-08 14:40 39.07814 117.41393 31116 ft 493 kts 88°
2026-05-08 14:40 39.07725 117.50209 31122 ft 493 kts 88°
2026-05-08 14:41 39.07630 117.59042 31109 ft 493 kts 88°
2026-05-08 14:41 39.07533 117.67868 31101 ft 494 kts 88°
2026-05-08 14:42 39.07427 117.76703 31099 ft 494 kts 88°
2026-05-08 14:42 39.07303 117.85541 31102 ft 494 kts 88°
2026-05-08 14:43 39.07166 117.94379 31103 ft 494 kts 89°
2026-05-08 14:43 39.06952 118.03220 31103 ft 496 kts 94°
2026-05-08 14:44 39.05741 118.11978 31124 ft 498 kts 99°
2026-05-08 14:44 39.04373 118.20716 31115 ft 499 kts 99°
2026-05-08 14:45 39.02952 118.29453 31114 ft 499 kts 100°
2026-05-08 14:45 39.02061 118.38179 31123 ft 492 kts 81°
2026-05-08 14:46 39.02737 118.42442 31122 ft 483 kts 65°
2026-05-08 14:46 39.04201 118.46261 31119 ft 472 kts 50°
2026-05-08 14:46 39.06286 118.49445 31116 ft 461 kts 36°
2026-05-08 14:46 39.08824 118.51862 31115 ft 450 kts 23°
2026-05-08 14:47 39.11663 118.53436 31110 ft 440 kts 10°
2026-05-08 14:47 39.14618 118.54373 31111 ft 438 kts
2026-05-08 14:47 39.20551 118.56164 31135 ft 438 kts
2026-05-08 14:48 39.26480 118.57968 31135 ft 438 kts
2026-05-08 14:48 39.32400 118.59787 31137 ft 437 kts
2026-05-08 14:49 39.38325 118.61603 31154 ft 437 kts
2026-05-08 14:49 39.44229 118.63424 31153 ft 436 kts
2026-05-08 14:50 39.50119 118.65240 31155 ft 435 kts
2026-05-08 14:50 39.56010 118.67053 31171 ft 434 kts
2026-05-08 14:51 39.61885 118.68862 31168 ft 434 kts
2026-05-08 14:51 39.67752 118.70681 31162 ft 433 kts
2026-05-08 14:52 39.75395 118.73981 31173 ft 444 kts 24°
2026-05-08 14:53 39.80517 118.78593 31169 ft 449 kts 30°
2026-05-08 14:53 39.85576 118.83356 31152 ft 449 kts 30°
2026-05-08 14:54 39.90631 118.88110 31177 ft 448 kts 30°
2026-05-08 14:54 39.95680 118.92860 31171 ft 447 kts 29°
2026-05-08 14:55 40.00726 118.97604 31188 ft 447 kts 29°
2026-05-08 14:55 40.05754 119.02346 31195 ft 445 kts 29°
2026-05-08 14:56 40.10758 119.07086 31195 ft 444 kts 29°
2026-05-08 14:56 40.15748 119.11826 31184 ft 443 kts 30°
2026-05-08 14:57 40.20719 119.16570 31189 ft 442 kts 30°
2026-05-08 14:57 40.25699 119.21275 31182 ft 441 kts 29°
2026-05-08 14:58 40.30700 119.25904 31195 ft 440 kts 28°
2026-05-08 14:58 40.35702 119.30536 31194 ft 440 kts 28°
2026-05-08 14:59 40.40681 119.35192 31179 ft 440 kts 28°
2026-05-08 14:59 40.48141 119.42200 31158 ft 439 kts 28°
2026-05-08 15:00 40.53107 119.46875 31160 ft 439 kts 28°
2026-05-08 15:00 40.58076 119.51557 31158 ft 439 kts 28°
2026-05-08 15:01 40.63040 119.56243 31173 ft 439 kts 28°
2026-05-08 15:01 40.67993 119.60923 31174 ft 438 kts 28°
2026-05-08 15:02 40.72943 119.65599 31163 ft 438 kts 28°
2026-05-08 15:02 40.77887 119.70288 31149 ft 438 kts 28°
2026-05-08 15:03 40.82826 119.74989 31165 ft 437 kts 28°
2026-05-08 15:03 40.87757 119.79688 31153 ft 437 kts 28°
2026-05-08 15:04 40.92648 119.84357 31173 ft 436 kts 28°
2026-05-08 15:04 40.97591 119.89082 31179 ft 435 kts 28°
2026-05-08 15:05 41.02498 119.93780 31170 ft 435 kts 28°
2026-05-08 15:05 41.07361 119.98451 31161 ft 434 kts 28°
2026-05-08 15:06 41.12282 120.03182 31134 ft 434 kts 28°
2026-05-08 15:06 41.17145 120.07858 31124 ft 435 kts 28°
2026-05-08 15:07 41.22072 120.12612 31127 ft 435 kts 28°
2026-05-08 15:07 41.26932 120.17318 31140 ft 435 kts 28°
2026-05-08 15:08 41.31037 120.21296 31134 ft 436 kts 28°
2026-05-08 15:08 41.36728 120.26818 31131 ft 436 kts 28°
2026-05-08 15:09 41.41623 120.31573 31156 ft 435 kts 28°
2026-05-08 15:09 41.46512 120.36335 31150 ft 435 kts 28°
2026-05-08 15:10 41.51129 120.41625 31141 ft 451 kts 44°
2026-05-08 15:10 41.52823 120.45220 31138 ft 465 kts 57°
2026-05-08 15:10 41.53871 120.49368 31154 ft 480 kts 71°
2026-05-08 15:11 41.54269 120.53815 30592 ft 487 kts 81°
2026-05-08 15:11 41.54350 120.58345 29604 ft 489 kts 80°
2026-05-08 15:11 41.54530 120.62875 28499 ft 490 kts 79°
2026-05-08 15:11 41.54794 120.67420 27409 ft 491 kts 78°
2026-05-08 15:12 41.55098 120.71972 26290 ft 494 kts 78°
2026-05-08 15:12 41.55405 120.76555 25174 ft 497 kts 79°
2026-05-08 15:12 41.55685 120.81141 24386 ft 493 kts 79°
2026-05-08 15:12 41.55930 120.85685 23613 ft 489 kts 80°
2026-05-08 15:13 41.56154 120.90196 22758 ft 484 kts 81°
2026-05-08 15:13 41.56363 120.94653 22003 ft 479 kts 81°
2026-05-08 15:13 41.56564 120.99062 21329 ft 473 kts 82°
2026-05-08 15:13 41.56766 121.03418 20719 ft 466 kts 82°
2026-05-08 15:14 41.56973 121.07696 20080 ft 459 kts 82°
2026-05-08 15:14 41.57179 121.11924 19449 ft 453 kts 82°
2026-05-08 15:14 41.57381 121.16102 18825 ft 448 kts 82°
2026-05-08 15:14 41.57576 121.20224 18181 ft 443 kts 83°
2026-05-08 15:15 41.57731 121.24306 17572 ft 438 kts 84°
2026-05-08 15:15 41.57852 121.28371 17301 ft 437 kts 84°
2026-05-08 15:15 41.57952 121.32422 17035 ft 436 kts 84°
2026-05-08 15:15 41.58044 121.36469 16775 ft 434 kts 84°
2026-05-08 15:16 41.58141 121.40487 16517 ft 431 kts 85°
2026-05-08 15:16 41.58245 121.44472 16266 ft 429 kts 84°
2026-05-08 15:16 41.58354 121.48440 16002 ft 427 kts 84°
2026-05-08 15:16 41.58462 121.52391 15748 ft 425 kts 85°
2026-05-08 15:17 41.58566 121.56331 15490 ft 423 kts 85°
2026-05-08 15:17 41.58669 121.60252 15254 ft 421 kts 85°
2026-05-08 15:17 41.58773 121.64151 15006 ft 420 kts 85°
2026-05-08 15:17 41.58876 121.68039 14759 ft 418 kts 85°
2026-05-08 15:18 41.58976 121.71917 14511 ft 416 kts 85°
2026-05-08 15:18 41.59076 121.75775 14272 ft 415 kts 85°
2026-05-08 15:18 41.59172 121.79613 14031 ft 413 kts 85°
2026-05-08 15:18 41.59267 121.83441 13791 ft 412 kts 85°
2026-05-08 15:19 41.59359 121.87253 13516 ft 410 kts 85°
2026-05-08 15:19 41.59446 121.91054 13248 ft 409 kts 85°
2026-05-08 15:19 41.59532 121.94841 12983 ft 407 kts 85°
2026-05-08 15:19 41.59619 121.98622 12719 ft 406 kts 85°
2026-05-08 15:20 41.59705 122.02390 12455 ft 405 kts 85°
2026-05-08 15:20 41.59791 122.06140 12194 ft 404 kts 85°
2026-05-08 15:20 41.59838 122.09883 11940 ft 404 kts 89°
2026-05-08 15:20 41.59574 122.13616 11681 ft 404 kts 96°
2026-05-08 15:21 41.59153 122.17323 11431 ft 403 kts 96°
2026-05-08 15:21 41.58739 122.21027 11190 ft 402 kts 96°
2026-05-08 15:21 41.58331 122.24720 10951 ft 401 kts 96°
2026-05-08 15:21 41.57926 122.28401 10707 ft 400 kts 96°
2026-05-08 15:22 41.57520 122.32067 10459 ft 399 kts 96°
2026-05-08 15:22 41.57125 122.35618 10223 ft 398 kts 96°
2026-05-08 15:22 41.56722 122.39217 9986 ft 396 kts 96°
2026-05-08 15:22 41.56320 122.42772 9819 ft 378 kts 96°
2026-05-08 15:23 41.55929 122.46206 9681 ft 360 kts 96°
2026-05-08 15:23 41.55565 122.49401 9546 ft 345 kts 96°
2026-05-08 15:23 41.55212 122.52509 9415 ft 332 kts 96°
2026-05-08 15:23 41.54872 122.55494 9288 ft 320 kts 96°
2026-05-08 15:24 41.54544 122.58373 9158 ft 308 kts 96°
2026-05-08 15:24 41.54226 122.61175 9027 ft 304 kts 96°
2026-05-08 15:24 41.53910 122.63953 8890 ft 302 kts 96°
2026-05-08 15:24 41.53597 122.66723 8766 ft 301 kts 96°
2026-05-08 15:25 41.53283 122.69479 8629 ft 300 kts 97°
2026-05-08 15:25 41.52966 122.72233 8504 ft 299 kts 97°
2026-05-08 15:25 41.52649 122.74970 8379 ft 299 kts 97°
2026-05-08 15:25 41.52330 122.77706 8251 ft 298 kts 97°
2026-05-08 15:26 41.52012 122.80431 8123 ft 297 kts 97°
2026-05-08 15:26 41.51694 122.83151 7996 ft 296 kts 97°
2026-05-08 15:26 41.51379 122.85865 7869 ft 295 kts 97°
2026-05-08 15:26 41.51064 122.88566 7748 ft 295 kts 97°
2026-05-08 15:27 41.50749 122.91264 7622 ft 293 kts 97°
2026-05-08 15:27 41.50429 122.93984 7496 ft 293 kts 97°
2026-05-08 15:27 41.50116 122.96625 7375 ft 292 kts 98°
2026-05-08 15:27 41.49801 122.99296 7249 ft 291 kts 98°
2026-05-08 15:28 41.49487 123.01959 7122 ft 290 kts 98°
2026-05-08 15:28 41.49174 123.04615 7002 ft 289 kts 98°
2026-05-08 15:28 41.48865 123.07222 6876 ft 289 kts 98°
2026-05-08 15:28 41.48555 123.09827 6761 ft 288 kts 98°
2026-05-08 15:29 41.48240 123.12456 6639 ft 287 kts 98°
2026-05-08 15:29 41.47924 123.15082 6517 ft 286 kts 98°
2026-05-08 15:29 41.47612 123.17693 6396 ft 285 kts 98°
2026-05-08 15:29 41.47412 123.20314 6270 ft 284 kts 91°
2026-05-08 15:30 41.47435 123.22931 6136 ft 281 kts 85°
2026-05-08 15:30 41.47674 123.25503 6007 ft 279 kts 78°
2026-05-08 15:30 41.48121 123.28021 5878 ft 278 kts 73°
2026-05-08 15:30 41.48652 123.30503 5745 ft 278 kts 73°
2026-05-08 15:31 41.49180 123.32983 5624 ft 278 kts 73°
2026-05-08 15:31 41.49706 123.35464 5494 ft 277 kts 73°
2026-05-08 15:31 41.50229 123.37937 5371 ft 277 kts 73°
2026-05-08 15:31 41.50849 123.40371 5241 ft 277 kts 67°
2026-05-08 15:32 41.51678 123.42684 5111 ft 276 kts 60°
2026-05-08 15:32 41.52611 123.44957 4993 ft 276 kts 61°
2026-05-08 15:32 41.53516 123.47184 4867 ft 276 kts 61°
2026-05-08 15:32 41.54428 123.49431 4735 ft 272 kts 61°
2026-05-08 15:33 41.55305 123.51598 4616 ft 259 kts 61°
2026-05-08 15:33 41.56142 123.53662 4477 ft 247 kts 61°
2026-05-08 15:33 41.56976 123.55607 4349 ft 236 kts 56°
2026-05-08 15:33 41.57943 123.57341 4151 ft 229 kts 48°
2026-05-08 15:34 41.58995 123.58929 3860 ft 228 kts 47°
2026-05-08 15:34 41.60041 123.60510 3581 ft 227 kts 48°
2026-05-08 15:34 41.61071 123.62073 3449 ft 220 kts 48°
2026-05-08 15:34 41.62066 123.63587 3317 ft 214 kts 48°
2026-05-08 15:35 41.63034 123.65059 3157 ft 210 kts 48°
2026-05-08 15:35 41.63699 123.66070 2822 ft 218 kts 48°
2026-05-08 15:35 41.64757 123.67596 2352 ft 229 kts 39°
2026-05-08 15:35 41.66179 123.68520 2017 ft 225 kts 10°
2026-05-08 15:36 41.67654 123.68873 1999 ft 208 kts
2026-05-08 15:36 41.69053 123.69207 2012 ft 196 kts
2026-05-08 15:36 41.70255 123.69492 2010 ft 173 kts
2026-05-08 15:36 41.71383 123.69443 2025 ft 154 kts 345°
2026-05-08 15:37 41.72367 123.68940 2019 ft 146 kts 326°
2026-05-08 15:37 41.73141 123.68100 2010 ft 142 kts 309°
2026-05-08 15:37 41.73682 123.67019 2010 ft 139 kts 292°
2026-05-08 15:37 41.73964 123.65798 2008 ft 137 kts 276°
2026-05-08 15:38 41.73975 123.64560 2009 ft 135 kts 260°
2026-05-08 15:38 41.73723 123.63361 2008 ft 133 kts 242°
2026-05-08 15:38 41.73159 123.62389 2009 ft 132 kts 231°
2026-05-08 15:38 41.72583 123.61436 2010 ft 132 kts 229°
2026-05-08 15:39 41.71992 123.60498 2005 ft 132 kts 229°
2026-05-08 15:39 41.71393 123.59569 2001 ft 132 kts 228°
2026-05-08 15:39 41.70789 123.58642 1899 ft 132 kts 228°
2026-05-08 15:39 41.70185 123.57720 1752 ft 131 kts 228°
2026-05-08 15:40 41.69580 123.56800 1596 ft 132 kts 228°
2026-05-08 15:40 41.68975 123.55882 1424 ft 131 kts 228°
2026-05-08 15:40 41.68369 123.54961 1252 ft 132 kts 228°
2026-05-08 15:40 41.67762 123.54032 1062 ft 133 kts 227°
2026-05-08 15:41 41.67134 123.53114 857 ft 134 kts 229°
2026-05-08 15:41 41.66527 123.52166 670 ft 134 kts 227°
2026-05-08 15:41 41.65909 123.51235 535 ft 134 kts 228°
2026-05-08 15:41 41.65293 123.50292 361 ft 135 kts 227°
2026-05-08 15:42 41.64685 123.49384 226 ft 134 kts 227°
2026-05-08 15:42 41.64122 123.48533 206 ft 90 kts 229°
2026-05-08 15:42 41.63864 123.48142 206 ft 43 kts 229°
2026-05-08 15:42 41.63695 123.47969 204 ft 21 kts 205°
2026-05-08 15:43 41.63564 123.47898 207 ft 19 kts 197°
2026-05-08 15:43 41.63438 123.47837 206 ft 19 kts 205°
2026-05-08 15:43 41.63343 123.47765 207 ft 12 kts 171°
2026-05-08 15:43 41.63279 123.47833 207 ft 11 kts 136°
2026-05-08 15:44 41.63222 123.47900 209 ft 10 kts 139°
2026-05-08 15:44 41.63171 123.47961 202 ft 9 kts 138°
2026-05-08 15:44 41.63130 123.48018 206 ft 8 kts 120°
2026-05-08 15:44 41.63149 123.48070 206 ft 6 kts 50°
2026-05-08 15:45 41.63170 123.48112 200 ft 5 kts 58°
2026-05-08 15:45 41.63188 123.48149 210 ft 4 kts 58°
2026-05-08 15:45 41.63202 123.48180 212 ft 4 kts 58°
2026-05-08 15:45 41.63210 123.48198 210 ft 0 kts 58°